[[{"header":{"parameterUnit":"m.s-1","parameterCategory":1,"la1":30.2991,"la2":30.254,"lo1":-89.0895,"lo2":-89.0444,"dy":0.0017,"dx":0.0017,"nx":28,"ny":28,"refTime":"2025-09-16T03:00:00:Z","depth":0,"parameterNumber":2,"parameterNumberName":"U-component_of_WINDS"},"data":[0,0,0,0,0,0,0,0,0,0,0,0,0,0,0,0,0,0,0,0,0,0,0,0,0,0,0,0,0,0,0,0,0,0,0,0,0,0,0,0,0,0,0,0,0,0,0,0,0,0,0,0,0,0,0,0,0,0,-1.1817,-1.1817,0,-1.1846,-1.1846,-1.1847,-1.1827,-1.1826,-1.1825,-1.1824,-1.1856,-1.1857,-1.1859,0,0,0,0,0,0,0,0,0,0,0,0,0,-1.1745,-1.1747,-1.1817,-1.1817,-1.1817,-1.1846,-1.1846,-1.1847,-1.1827,-1.1826,-1.1825,-1.1824,-1.1855,-1.1857,-1.1859,0,0,0,0,0,0,0,0,0,0,0,0,0,-1.1776,-1.1747,-1.1817,-1.1811,-1.1811,-1.1846,-1.1846,-1.1847,-1.1827,-1.1826,-1.1824,-1.1823,-1.1854,-1.1857,-1.1859,-1.1903,0,0,-1.1867,-1.1868,0,0,0,0,0,0,0,0,-1.1774,-1.1778,-1.1811,-1.1811,-1.1811,-1.1831,-1.1833,-1.1866,-1.1827,-1.1821,-1.1824,-1.1822,-1.1849,-1.1852,-1.186,-1.1904,-1.1906,-1.1867,-1.1869,-1.187,-1.1871,0,0,0,0,0,0,0,-1.1772,-1.1777,-1.1828,-1.1812,-1.1812,-1.1807,-1.181,-1.1839,-1.1842,-1.1821,-1.182,-1.1824,-1.1848,-1.1858,-1.1861,-1.1906,-1.1867,-1.187,-1.1871,-1.1872,-1.1988,-1.1989,0,0,0,0,0,0,-1.177,-1.1775,-1.1827,-1.1829,-1.1789,-1.181,-1.1813,-1.1826,-1.1842,-1.1843,-1.1825,-1.1823,-1.1854,-1.1858,-1.1862,-1.1914,-1.187,-1.1872,-1.1874,-1.1986,-1.1988,-1.199,0,0,0,0,0,0,-1.1768,-1.1775,-1.1826,-1.1802,-1.1808,-1.1812,-1.1828,-1.1827,-1.1837,-1.1844,-1.1845,-1.1834,-1.1853,-1.1858,-1.1893,-1.1915,-1.1874,-1.1876,-1.1984,-1.1987,-1.1989,-1.2018,0,0,0,0,0,0,-1.1766,-1.1774,-1.179,-1.1802,-1.1809,-1.1856,-1.1829,-1.1829,-1.1841,-1.1839,-1.1853,-1.1854,-1.1853,-1.1889,-1.1895,-1.1917,-1.1878,-1.1982,-1.1985,-1.1988,-1.2015,-1.2021,-1.2026,0,0,0,0,0,-1.1764,-1.1798,-1.1791,-1.1798,-1.1829,-1.1857,-1.1861,-1.1859,-1.1843,-1.1859,-1.1864,-1.1854,-1.1911,-1.1893,-1.19,-1.1923,-1.1981,-1.1985,-1.1988,-1.2013,-1.202,-1.2026,0,0,0,0,0,0,-1.1789,-1.1799,-1.1792,-1.183,-1.1843,-1.1854,-1.1874,-1.1866,-1.1884,-1.1881,-1.1877,-1.1881,-1.1917,-1.1923,-1.1902,-1.1966,-1.1944,-1.1949,-1.196,-1.1967,-1.1973,-1.197,-1.188,0,0,0,0,0,-1.1798,-1.182,-1.1828,-1.1861,-1.1868,-1.187,-1.1882,-1.1879,-1.1892,-1.1897,-1.1905,-1.1919,-1.194,-1.1954,-1.1974,-1.2016,-1.2019,-1.2036,-1.2041,-1.2046,-1.205,-1.2073,-1.2081,-1.2001,-1.2001,-1.2001,0,0,-1.1819,-1.1827,-1.1841,-1.1866,-1.1875,-1.1898,-1.1875,-1.1899,-1.1916,-1.1901,-1.1934,-1.194,-1.1955,-1.1994,-1.2011,-1.2,-1.2073,-1.205,-1.2053,-1.2055,-1.2078,-1.2085,-1.2092,-1.2003,-1.2003,-1.2003,0,0,-1.1868,-1.1876,-1.1905,-1.1915,-1.1929,-1.1931,-1.1938,-1.195,-1.1953,-1.1986,-1.1975,-1.1996,-1.2032,-1.2044,-1.2054,-1.2108,-1.2099,-1.2115,-1.2144,-1.2166,-1.2173,-1.2178,-1.2198,-1.2205,-1.2119,-1.2119,-1.2119,0,-1.1892,-1.1925,-1.1921,-1.1947,-1.1958,-1.1945,-1.1975,-1.1985,-1.2005,-1.2014,-1.2001,-1.2047,-1.2056,-1.2098,-1.2111,-1.212,-1.2128,-1.2113,-1.2172,-1.2178,-1.2183,-1.2201,-1.2209,-1.2121,-1.2121,-1.2121,-1.2121,0,-1.1954,-1.1977,-1.1999,-1.2018,-1.2032,-1.206,-1.2061,-1.2075,-1.2071,-1.2074,-1.2108,-1.2119,-1.2141,-1.2151,-1.2147,-1.2192,-1.2185,-1.2172,-1.215,-1.2192,-1.221,-1.2217,-1.2124,-1.2123,-1.2123,-1.2122,0,0,-1.202,-1.2036,-1.2044,-1.2053,-1.2068,-1.2086,-1.2114,-1.2135,-1.2148,-1.2163,-1.2186,-1.2217,-1.2206,-1.2218,-1.2216,-1.2236,-1.2278,-1.2221,-1.2221,-1.2231,-1.2329,-1.2338,-1.2347,-1.2272,-1.2274,-1.2275,-1.2328,0,-1.207,-1.2116,-1.2113,-1.2158,-1.2179,-1.2167,-1.2191,-1.2204,-1.2207,-1.2227,-1.2231,-1.2254,-1.2237,-1.2244,-1.2263,-1.2269,-1.2298,-1.2265,-1.2295,-1.2296,-1.2291,-1.2356,-1.2366,-1.2415,-1.2335,-1.2336,-1.2337,0,-1.2134,-1.2151,-1.2197,-1.2209,-1.2218,-1.2239,-1.2259,-1.2277,-1.2291,-1.2293,-1.2306,-1.2301,-1.2329,-1.2306,-1.2345,-1.2323,-1.2335,-1.234,-1.2342,-1.2345,-1.2319,-1.2361,-1.2431,-1.2438,-1.2347,-1.2346,-1.2346,0,-1.2178,-1.2212,-1.2243,-1.2251,-1.2266,-1.2282,-1.2289,-1.2301,-1.2314,-1.2331,-1.234,-1.2361,-1.2372,-1.2388,-1.2389,-1.2372,-1.2429,-1.2406,-1.2431,-1.2432,-1.2444,-1.2443,-1.2517,-1.2452,-1.2451,-1.2451,-1.2451,0,-1.2234,-1.2263,-1.2263,-1.2283,-1.2315,-1.2312,-1.2344,-1.235,-1.2361,-1.2382,-1.2374,-1.2394,-1.2393,-1.2414,-1.2414,-1.2447,-1.2453,-1.2455,-1.2455,-1.2456,-1.2456,-1.2464,-1.2461,-1.2453,-1.2453,-1.2452,-1.2452,0,-1.2288,-1.2289,-1.2324,-1.2335,-1.2338,-1.2361,-1.2371,-1.239,-1.2393,-1.242,-1.2427,-1.2432,-1.2456,-1.2458,-1.2486,-1.2486,-1.2526,-1.2522,-1.2521,-1.2521,-1.2546,-1.2544,-1.2629,-1.264,-1.2566,-1.2567,-1.2568,0,-1.2325,-1.2346,-1.2359,-1.2373,-1.238,-1.2402,-1.2415,-1.2413,-1.2427,-1.2445,-1.2462,-1.2485,-1.2504,-1.2543,-1.255,-1.2571,-1.2568,-1.2596,-1.2571,-1.2572,-1.2569,-1.2568,-1.257,-1.2601,-1.2602,-1.2602,-1.2603,0,-1.2389,-1.2388,-1.2407,-1.2426,-1.2442,-1.2457,-1.2471,-1.2483,-1.2482,-1.2499,-1.2523,-1.2537,-1.2566,-1.2589,-1.2611,-1.2619,-1.2611,-1.2611,-1.2618,-1.2619,-1.2618,-1.2619,-1.2535,-1.2609,-1.2608,-1.2608,-1.2607,-1.2607,-1.2435,-1.2454,-1.2466,-1.2488,-1.2498,-1.2511,-1.253,-1.2535,-1.2555,-1.2577,-1.2575,-1.2602,-1.2616,-1.2644,-1.2654,-1.2675,-1.2666,-1.2676,-1.2679,-1.2682,-1.2684,-1.2614,-1.2679,-1.2679,-1.2679,-1.2679,-1.2679,0,-1.2499,-1.2506,-1.2526,-1.2546,-1.2563,-1.2553,-1.2569,-1.2584,-1.2607,-1.2621,-1.2639,-1.2667,-1.269,-1.2698,-1.272,-1.2736,-1.2733,-1.2742,-1.2741,-1.2743,-1.2691,-1.2683,-1.2744,-1.2744,-1.2744,-1.2744,-1.2744,-1.2744,-1.2535,-1.2566,-1.2567,-1.2604,-1.2611,-1.2637,-1.2646,-1.2659,-1.267,-1.2701,-1.272,-1.2725,-1.2736,-1.276,-1.278,-1.2782,-1.2791,-1.2802,-1.2802,-1.2754,-1.2747,-1.2741,-1.2733,-1.2803,-1.2803,-1.2852,-1.2853,-1.2853]},{"header":{"parameterUnit":"m.s-1","parameterCategory":1,"la1":30.2991,"la2":30.254,"lo1":-89.0895,"lo2":-89.0444,"dy":0.0017,"dx":0.0017,"nx":28,"ny":28,"refTime":"2025-09-16T03:00:00:Z","depth":0,"parameterNumber":3,"parameterNumberName":"V-component_of_WINDS"},"data":[0,0,0,0,0,0,0,0,0,0,0,0,0,0,0,0,0,0,0,0,0,0,0,0,0,0,0,0,0,0,0,0,0,0,0,0,0,0,0,0,0,0,0,0,0,0,0,0,0,0,0,0,0,0,0,0,0,0,3.5728,3.5728,0,3.5725,3.5725,3.5725,3.5707,3.5707,3.5706,3.5706,3.5702,3.5703,3.5703,0,0,0,0,0,0,0,0,0,0,0,0,0,3.5719,3.5719,3.5728,3.5728,3.5728,3.5725,3.5725,3.5725,3.5707,3.5707,3.5706,3.5706,3.5702,3.5703,3.5703,0,0,0,0,0,0,0,0,0,0,0,0,0,3.572,3.5719,3.5728,3.5719,3.5718,3.5725,3.5725,3.5725,3.5707,3.5707,3.5706,3.5705,3.5702,3.5703,3.5703,3.5718,0,0,3.5704,3.5705,0,0,0,0,0,0,0,0,3.572,3.572,3.572,3.5719,3.5718,3.5716,3.572,3.5722,3.5707,3.5711,3.5706,3.5705,3.5707,3.5707,3.5708,3.5718,3.5718,3.5704,3.5705,3.5705,3.5705,0,0,0,0,0,0,0,3.572,3.5721,3.5727,3.572,3.5719,3.5715,3.5714,3.5721,3.5713,3.5711,3.571,3.5709,3.5707,3.5708,3.5708,3.5718,3.5704,3.5705,3.5705,3.5705,3.5741,3.5741,0,0,0,0,0,0,3.5721,3.5721,3.5727,3.5726,3.5718,3.5716,3.5715,3.5717,3.5713,3.5711,3.571,3.5709,3.5707,3.5707,3.5708,3.5725,3.5705,3.5705,3.5706,3.574,3.5741,3.5741,0,0,0,0,0,0,3.5721,3.5722,3.5727,3.5723,3.5723,3.5716,3.5719,3.5717,3.5718,3.5712,3.5711,3.5712,3.5707,3.5707,3.5716,3.5724,3.5706,3.5706,3.5739,3.574,3.5741,3.576,0,0,0,0,0,0,3.5721,3.5722,3.5728,3.5723,3.5724,3.5735,3.572,3.5718,3.5719,3.5717,3.5714,3.5713,3.5706,3.5715,3.5716,3.5725,3.5706,3.5738,3.574,3.5741,3.5758,3.5761,3.5764,0,0,0,0,0,3.5721,3.5733,3.5728,3.5729,3.5731,3.5735,3.5736,3.5728,3.572,3.5725,3.5722,3.5713,3.5724,3.5716,3.5717,3.5726,3.5738,3.5739,3.5741,3.5757,3.576,3.5763,0,0,0,0,0,0,3.5738,3.5732,3.5727,3.5738,3.5737,3.5732,3.5739,3.5732,3.5734,3.5732,3.5723,3.5722,3.5732,3.573,3.5722,3.5741,3.5729,3.5731,3.5741,3.5745,3.5747,3.5747,3.5707,0,0,0,0,0,3.5743,3.5747,3.5742,3.5753,3.5753,3.5746,3.5748,3.5742,3.5741,3.5741,3.5738,3.5737,3.574,3.5743,3.5745,3.5758,3.5757,3.5765,3.5768,3.577,3.5771,3.5778,3.5781,3.5746,3.5746,3.5746,0,0,3.5753,3.5751,3.5754,3.5756,3.5755,3.576,3.5746,3.5752,3.5755,3.5742,3.5749,3.5747,3.5746,3.5757,3.5762,3.5756,3.5781,3.5772,3.5774,3.5774,3.5779,3.5783,3.5786,3.5747,3.5747,3.5747,0,0,3.5775,3.5774,3.5782,3.5781,3.578,3.5776,3.5778,3.5774,3.5772,3.578,3.5771,3.5775,3.5781,3.578,3.5781,3.5803,3.5795,3.5804,3.5818,3.5824,3.5827,3.5829,3.5837,3.5839,3.5806,3.5806,3.5806,0,3.5787,3.5794,3.5787,3.5793,3.5794,3.5783,3.5792,3.5791,3.5791,3.5792,3.5786,3.5793,3.5792,3.5802,3.5807,3.5809,3.581,3.5804,3.5827,3.583,3.5832,3.5838,3.5841,3.5807,3.5807,3.5807,3.5807,0,3.581,3.5815,3.5822,3.5822,3.5824,3.5831,3.5825,3.5828,3.5823,3.5819,3.5828,3.5826,3.5828,3.583,3.5825,3.584,3.5836,3.5829,3.5817,3.5836,3.5842,3.5845,3.5808,3.5808,3.5808,3.5807,0,0,3.584,3.5837,3.5839,3.5839,3.5838,3.5841,3.5849,3.5851,3.5853,3.5854,3.5859,3.5865,3.5859,3.5859,3.5854,3.586,3.5877,3.5852,3.5851,3.5855,3.5893,3.5897,3.5901,3.5872,3.5873,3.5873,3.5893,0,3.5859,3.5871,3.5865,3.5878,3.5882,3.5872,3.5879,3.5878,3.5876,3.5879,3.5876,3.588,3.5871,3.5871,3.5877,3.5874,3.5884,3.5872,3.5877,3.5877,3.5876,3.5904,3.5909,3.5927,3.5895,3.5895,3.5896,0,3.5883,3.5885,3.5898,3.5896,3.5897,3.5903,3.5905,3.5908,3.5908,3.5906,3.5907,3.5901,3.5908,3.5897,3.5906,3.5898,3.59,3.5899,3.59,3.5898,3.5886,3.5902,3.5933,3.5935,3.59,3.5899,3.5899,0,3.5903,3.5909,3.5917,3.5917,3.5915,3.592,3.5919,3.5918,3.592,3.5922,3.5923,3.5926,3.5927,3.5929,3.5923,3.5916,3.5933,3.5922,3.5931,3.5931,3.5934,3.5933,3.5963,3.5937,3.5937,3.5937,3.5937,0,3.5924,3.5932,3.5926,3.593,3.5939,3.5933,3.5942,3.594,3.594,3.5945,3.5937,3.5941,3.5935,3.5938,3.5934,3.5942,3.5943,3.5941,3.594,3.5941,3.5941,3.5941,3.5939,3.5938,3.5937,3.5937,3.5937,0,3.5946,3.5943,3.5951,3.5949,3.5949,3.5955,3.5953,3.5958,3.5955,3.5961,3.5962,3.5958,3.5962,3.5957,3.5961,3.5958,3.5969,3.5966,3.5969,3.5967,3.5976,3.5975,3.6006,3.6009,3.5982,3.5982,3.5982,0,3.596,3.5965,3.5964,3.5967,3.5967,3.5971,3.5973,3.5968,3.597,3.5971,3.5975,3.5979,3.5981,3.5989,3.5986,3.5989,3.5985,3.5996,3.5986,3.5987,3.5984,3.5983,3.5984,3.5998,3.5998,3.5998,3.5999,0,3.5983,3.5981,3.5984,3.5987,3.599,3.5992,3.5993,3.5996,3.599,3.5993,3.5998,3.6,3.6004,3.6007,3.601,3.6009,3.6003,3.6002,3.6004,3.6005,3.6006,3.6004,3.5973,3.6001,3.6001,3.6001,3.6001,3.6,3.6,3.6005,3.6005,3.6009,3.601,3.6012,3.6016,3.6014,3.6018,3.6021,3.6018,3.6023,3.6023,3.6025,3.6026,3.603,3.6025,3.6028,3.6028,3.6029,3.603,3.6006,3.603,3.603,3.603,3.603,3.603,0,3.6023,3.6023,3.6027,3.6029,3.6032,3.6027,3.6028,3.6031,3.6036,3.6037,3.604,3.6045,3.6048,3.6046,3.605,3.6053,3.605,3.6054,3.6053,3.6053,3.6034,3.6032,3.6056,3.6056,3.6056,3.6056,3.6056,3.6056,3.6035,3.6042,3.6041,3.6049,3.6049,3.6054,3.6055,3.6057,3.6057,3.6063,3.6066,3.6065,3.6065,3.6068,3.6071,3.6071,3.6072,3.6076,3.6074,3.6057,3.6054,3.6052,3.6049,3.6077,3.6077,3.6093,3.6093,3.6093]}]]